Time,TemperatureF,DewpointF,PressureIn,WindDirection,WindDirectionDegrees,WindSpeedMPH,WindSpeedGustMPH,Humidity,HourlyPrecipIn,Conditions,Clouds,dailyrainin,SolarRadiationWatts/m^2,SoftwareType,DateUTC
2013-02-03 00:01:00,55.0,26.0,-100.00,NE,46,6.0,9.0,33,0.00,,,0.00,0.000000,,2013-02-03 08:01:00,
2013-02-03 00:11:00,55.0,26.0,-100.00,NE,46,6.0,9.0,33,0.00,,,0.00,0.000000,,2013-02-03 08:11:00,
2013-02-03 01:42:00,53.0,35.0,-100.00,NE,48,1.0,6.0,50,-99.99,,,0.00,0.000000,,2013-02-03 09:42:00,
2013-02-03 01:52:00,53.0,35.0,-100.00,NE,48,1.0,6.0,50,-99.99,,,0.00,0.000000,,2013-02-03 09:52:00,
2013-02-03 02:01:00,53.0,35.0,-100.00,NE,48,1.0,6.0,50,-99.99,,,0.00,0.000000,,2013-02-03 10:01:00,
2013-02-03 02:11:00,53.0,35.0,-100.00,NE,48,1.0,6.0,50,-99.99,,,0.00,0.000000,,2013-02-03 10:11:00,
2013-02-03 02:32:00,51.0,37.0,-100.00,NW,314,4.0,7.0,58,0.00,,,0.00,0.000000,,2013-02-03 10:32:00,
2013-02-03 02:42:00,51.0,37.0,-100.00,NW,314,4.0,7.0,58,0.00,,,0.00,0.000000,,2013-02-03 10:42:00,
2013-02-03 02:52:00,51.0,37.0,-100.00,NW,314,4.0,7.0,58,0.00,,,0.00,0.000000,,2013-02-03 10:52:00,
2013-02-03 03:02:00,51.0,37.0,-100.00,NW,314,4.0,7.0,58,0.00,,,0.00,0.000000,,2013-02-03 11:02:00,
2013-02-03 03:11:00,51.0,37.0,-100.00,NW,314,4.0,7.0,58,0.00,,,0.00,0.000000,,2013-02-03 11:11:00,
2013-02-03 03:32:00,49.0,39.0,-100.00,NNE,19,0.0,6.0,68,0.00,,,0.00,0.000000,,2013-02-03 11:32:00,
2013-02-03 03:42:00,49.0,39.0,-100.00,NNE,19,0.0,6.0,68,0.00,,,0.00,0.000000,,2013-02-03 11:42:00,
2013-02-03 03:52:00,49.0,39.0,-100.00,NNE,19,0.0,6.0,68,0.00,,,0.00,0.000000,,2013-02-03 11:52:00,
2013-02-03 04:02:00,49.0,39.0,-100.00,NNE,19,0.0,6.0,68,0.00,,,0.00,0.000000,,2013-02-03 12:02:00,
2013-02-03 04:11:00,49.0,39.0,-100.00,NNE,19,0.0,6.0,68,0.00,,,0.00,0.000000,,2013-02-03 12:11:00,
2013-02-03 04:32:00,46.0,40.0,-100.00,WNW,294,2.0,5.0,79,0.00,,,0.00,0.000000,,2013-02-03 12:32:00,
2013-02-03 04:42:00,46.0,40.0,-100.00,WNW,294,2.0,5.0,79,0.00,,,0.00,0.000000,,2013-02-03 12:42:00,
2013-02-03 04:53:00,46.0,40.0,-100.00,WNW,294,2.0,5.0,79,0.00,,,0.00,0.000000,,2013-02-03 12:53:00,
2013-02-03 05:02:00,46.0,40.0,-100.00,WNW,294,2.0,5.0,79,0.00,,,0.00,0.000000,,2013-02-03 13:02:00,
2013-02-03 05:11:00,46.0,40.0,-100.00,WNW,294,2.0,5.0,79,0.00,,,0.00,0.000000,,2013-02-03 13:11:00,
2013-02-03 05:32:00,46.0,43.0,-100.00,ENE,72,0.0,6.0,90,0.00,,,0.00,0.000000,,2013-02-03 13:32:00,
2013-02-03 05:42:00,46.0,43.0,-100.00,ENE,72,0.0,6.0,90,0.00,,,0.00,0.000000,,2013-02-03 13:42:00,
2013-02-03 05:52:00,46.0,43.0,-100.00,ENE,72,0.0,6.0,90,0.00,,,0.00,0.000000,,2013-02-03 13:52:00,
2013-02-03 06:02:00,46.0,43.0,-100.00,ENE,72,0.0,6.0,90,0.00,,,0.00,0.000000,,2013-02-03 14:02:00,
2013-02-03 06:11:00,46.0,43.0,-100.00,ENE,72,0.0,6.0,90,0.00,,,0.00,0.000000,,2013-02-03 14:11:00,
2013-02-03 06:42:00,48.0,43.0,-100.00,NE,48,0.0,4.0,84,0.00,,,0.00,0.000000,,2013-02-03 14:42:00,
2013-02-03 06:52:00,48.0,43.0,-100.00,NE,48,0.0,4.0,84,0.00,,,0.00,0.000000,,2013-02-03 14:52:00,
2013-02-03 07:03:00,48.0,43.0,-100.00,NE,48,0.0,4.0,84,0.00,,,0.00,0.000000,,2013-02-03 15:03:00,
2013-02-03 07:11:00,48.0,43.0,-100.00,NE,48,0.0,4.0,84,0.00,,,0.00,0.000000,,2013-02-03 15:11:00,
2013-02-03 07:33:00,48.0,42.0,-100.00,WNW,288,0.0,3.0,80,0.00,,,0.00,4.000000,,2013-02-03 15:33:00,
2013-02-03 07:42:00,48.0,42.0,-100.00,WNW,288,0.0,3.0,80,0.00,,,0.00,4.000000,,2013-02-03 15:42:00,
2013-02-03 07:52:00,48.0,42.0,-100.00,WNW,288,0.0,3.0,80,0.00,,,0.00,4.000000,,2013-02-03 15:52:00,
2013-02-03 08:02:00,48.0,42.0,-100.00,WNW,288,0.0,3.0,80,0.00,,,0.00,4.000000,,2013-02-03 16:02:00,
2013-02-03 08:11:00,48.0,42.0,-100.00,WNW,288,0.0,3.0,80,0.00,,,0.00,4.000000,,2013-02-03 16:11:00,
2013-02-03 08:33:00,51.0,44.0,-100.00,NE,38,0.0,0.0,76,0.00,,,0.00,90.000000,,2013-02-03 16:33:00,
2013-02-03 08:42:00,51.0,44.0,-100.00,NE,38,0.0,0.0,76,0.00,,,0.00,90.000000,,2013-02-03 16:42:00,
2013-02-03 08:52:00,51.0,44.0,-100.00,NE,38,0.0,0.0,76,0.00,,,0.00,90.000000,,2013-02-03 16:52:00,
2013-02-03 09:02:00,51.0,44.0,-100.00,NE,38,0.0,0.0,76,0.00,,,0.00,90.000000,,2013-02-03 17:02:00,
2013-02-03 09:11:00,51.0,44.0,-100.00,NE,38,0.0,0.0,76,0.00,,,0.00,90.000000,,2013-02-03 17:11:00,
2013-02-03 09:32:00,57.0,39.0,-100.00,WSW,256,1.0,7.0,50,0.00,,,0.00,401.000000,,2013-02-03 17:32:00,
2013-02-03 09:42:00,57.0,39.0,-100.00,WSW,256,1.0,7.0,50,0.00,,,0.00,401.000000,,2013-02-03 17:42:00,
2013-02-03 09:52:00,57.0,39.0,-100.00,WSW,256,1.0,7.0,50,0.00,,,0.00,401.000000,,2013-02-03 17:52:00,
2013-02-03 10:02:00,57.0,39.0,-100.00,WSW,256,1.0,7.0,50,0.00,,,0.00,401.000000,,2013-02-03 18:02:00,
2013-02-03 10:11:00,57.0,39.0,-100.00,WSW,256,1.0,7.0,50,0.00,,,0.00,401.000000,,2013-02-03 18:11:00,
2013-02-03 10:33:00,63.0,43.0,-100.00,WSW,257,2.0,7.0,48,0.00,,,0.00,652.000000,,2013-02-03 18:33:00,
2013-02-03 10:42:00,63.0,43.0,-100.00,WSW,257,2.0,7.0,48,0.00,,,0.00,652.000000,,2013-02-03 18:42:00,
2013-02-03 10:52:00,63.0,43.0,-100.00,WSW,257,2.0,7.0,48,0.00,,,0.00,652.000000,,2013-02-03 18:52:00,
2013-02-03 11:02:00,63.0,43.0,-100.00,WSW,257,2.0,7.0,48,0.00,,,0.00,652.000000,,2013-02-03 19:02:00,
2013-02-03 11:11:00,63.0,43.0,-100.00,WSW,257,2.0,7.0,48,0.00,,,0.00,652.000000,,2013-02-03 19:11:00,
2013-02-03 11:33:00,58.0,41.0,-100.00,WNW,292,1.0,7.0,53,0.00,,,-99.99,655.000000,,2013-02-03 19:33:00,
2013-02-03 11:42:00,58.0,41.0,-100.00,WNW,292,1.0,7.0,53,0.00,,,-99.99,655.000000,,2013-02-03 19:42:00,
2013-02-03 11:52:00,58.0,41.0,-100.00,WNW,292,1.0,7.0,53,0.00,,,-99.99,655.000000,,2013-02-03 19:52:00,
2013-02-03 12:01:00,58.0,41.0,-100.00,WNW,292,1.0,7.0,53,0.00,,,-99.99,655.000000,,2013-02-03 20:01:00,
2013-02-03 12:11:00,58.0,41.0,-100.00,WNW,292,1.0,7.0,53,0.00,,,-99.99,655.000000,,2013-02-03 20:11:00,
2013-02-03 12:42:00,58.0,41.0,-100.00,WSW,242,4.0,9.0,53,0.00,,,0.00,411.000000,,2013-02-03 20:42:00,
2013-02-03 12:52:00,58.0,41.0,-100.00,WSW,242,4.0,9.0,53,0.00,,,0.00,411.000000,,2013-02-03 20:52:00,
2013-02-03 13:03:00,58.0,41.0,-100.00,WSW,242,4.0,9.0,53,0.00,,,0.00,411.000000,,2013-02-03 21:03:00,
2013-02-03 13:11:00,58.0,41.0,-100.00,WSW,242,4.0,9.0,53,0.00,,,0.00,411.000000,,2013-02-03 21:11:00,
2013-02-03 13:33:00,58.0,39.0,-100.00,WSW,255,2.0,8.0,50,0.00,,,-99.99,560.000000,,2013-02-03 21:33:00,
2013-02-03 13:42:00,58.0,39.0,-100.00,WSW,255,2.0,8.0,50,0.00,,,-99.99,560.000000,,2013-02-03 21:42:00,
2013-02-03 13:52:00,58.0,39.0,-100.00,WSW,255,2.0,8.0,50,0.00,,,-99.99,560.000000,,2013-02-03 21:52:00,
2013-02-03 14:01:00,58.0,39.0,-100.00,WSW,255,2.0,8.0,50,0.00,,,-99.99,560.000000,,2013-02-03 22:01:00,
2013-02-03 14:11:00,58.0,39.0,-100.00,WSW,255,2.0,8.0,50,0.00,,,-99.99,560.000000,,2013-02-03 22:11:00,
2013-02-03 14:32:00,59.0,42.0,-100.00,West,270,4.0,9.0,53,0.00,,,0.00,323.000000,,2013-02-03 22:32:00,
2013-02-03 14:42:00,59.0,42.0,-100.00,West,270,4.0,9.0,53,0.00,,,0.00,323.000000,,2013-02-03 22:42:00,
2013-02-03 14:52:00,59.0,42.0,-100.00,West,270,4.0,9.0,53,0.00,,,0.00,323.000000,,2013-02-03 22:52:00,
2013-02-03 15:01:00,59.0,42.0,-100.00,West,270,4.0,9.0,53,0.00,,,0.00,323.000000,,2013-02-03 23:01:00,
2013-02-03 15:11:00,59.0,42.0,-100.00,West,270,4.0,9.0,53,0.00,,,0.00,323.000000,,2013-02-03 23:11:00,
2013-02-03 15:32:00,62.0,39.0,-100.00,WSW,247,7.0,11.0,43,0.00,,,0.00,561.000000,,2013-02-03 23:32:00,
2013-02-03 15:42:00,62.0,39.0,-100.00,WSW,247,7.0,11.0,43,0.00,,,0.00,561.000000,,2013-02-03 23:42:00,
2013-02-03 15:52:00,62.0,39.0,-100.00,WSW,247,7.0,11.0,43,0.00,,,0.00,561.000000,,2013-02-03 23:52:00,
2013-02-03 16:01:00,62.0,39.0,-100.00,WSW,247,7.0,11.0,43,0.00,,,0.00,561.000000,,2013-02-04 00:01:00,
2013-02-03 16:11:00,62.0,39.0,-100.00,WSW,247,7.0,11.0,43,0.00,,,0.00,561.000000,,2013-02-04 00:11:00,
2013-02-03 16:32:00,58.0,40.0,-100.00,SSW,193,4.0,11.0,52,0.00,,,0.00,244.000000,,2013-02-04 00:32:00,
2013-02-03 16:42:00,58.0,40.0,-100.00,SSW,193,4.0,11.0,52,0.00,,,0.00,244.000000,,2013-02-04 00:42:00,
2013-02-03 16:52:00,58.0,40.0,-100.00,SSW,193,4.0,11.0,52,0.00,,,0.00,244.000000,,2013-02-04 00:52:00,
2013-02-03 17:01:00,58.0,40.0,-100.00,SSW,193,4.0,11.0,52,0.00,,,0.00,244.000000,,2013-02-04 01:01:00,
2013-02-03 17:11:00,58.0,40.0,-100.00,SSW,193,4.0,11.0,52,0.00,,,0.00,244.000000,,2013-02-04 01:11:00,
2013-02-03 17:32:00,54.0,40.0,-100.00,SW,216,0.0,7.0,59,0.00,,,0.00,64.000000,,2013-02-04 01:32:00,
2013-02-03 17:42:00,54.0,40.0,-100.00,SW,216,0.0,7.0,59,0.00,,,0.00,64.000000,,2013-02-04 01:42:00,
2013-02-03 17:52:00,54.0,40.0,-100.00,SW,216,0.0,7.0,59,0.00,,,0.00,64.000000,,2013-02-04 01:52:00,
2013-02-03 18:01:00,54.0,40.0,-100.00,SW,216,0.0,7.0,59,0.00,,,0.00,64.000000,,2013-02-04 02:01:00,
2013-02-03 18:11:00,54.0,40.0,-100.00,SW,216,0.0,7.0,59,0.00,,,0.00,64.000000,,2013-02-04 02:11:00,
2013-02-03 18:42:00,51.0,39.0,-100.00,West,264,0.0,4.0,64,0.00,,,0.00,1.000000,,2013-02-04 02:42:00,
2013-02-03 18:52:00,51.0,39.0,-100.00,West,264,0.0,4.0,64,0.00,,,0.00,1.000000,,2013-02-04 02:52:00,
2013-02-03 19:01:00,51.0,39.0,-100.00,West,264,0.0,4.0,64,0.00,,,0.00,1.000000,,2013-02-04 03:01:00,
2013-02-03 19:11:00,51.0,39.0,-100.00,West,264,0.0,4.0,64,0.00,,,0.00,1.000000,,2013-02-04 03:11:00,
2013-02-03 19:32:00,48.0,39.0,-100.00,ENE,62,0.0,3.0,72,0.00,,,0.00,0.000000,,2013-02-04 03:32:00,
2013-02-03 19:42:00,48.0,39.0,-100.00,ENE,62,0.0,3.0,72,0.00,,,0.00,0.000000,,2013-02-04 03:42:00,
2013-02-03 19:52:00,48.0,39.0,-100.00,ENE,62,0.0,3.0,72,0.00,,,0.00,0.000000,,2013-02-04 03:52:00,
2013-02-03 20:01:00,48.0,39.0,-100.00,ENE,62,0.0,3.0,72,0.00,,,0.00,0.000000,,2013-02-04 04:01:00,
2013-02-03 20:11:00,48.0,39.0,-100.00,ENE,62,0.0,3.0,72,0.00,,,0.00,0.000000,,2013-02-04 04:11:00,
2013-02-03 20:32:00,48.0,40.0,-100.00,South,186,0.0,0.0,73,0.00,,,0.00,0.000000,,2013-02-04 04:32:00,
2013-02-03 20:42:00,48.0,40.0,-100.00,South,186,0.0,0.0,73,0.00,,,0.00,0.000000,,2013-02-04 04:42:00,
2013-02-03 20:52:00,48.0,40.0,-100.00,South,186,0.0,0.0,73,0.00,,,0.00,0.000000,,2013-02-04 04:52:00,
2013-02-03 21:03:00,48.0,40.0,-100.00,South,186,0.0,0.0,73,0.00,,,0.00,0.000000,,2013-02-04 05:03:00,
2013-02-03 21:11:00,48.0,40.0,-100.00,South,186,0.0,0.0,73,0.00,,,0.00,0.000000,,2013-02-04 05:11:00,
2013-02-03 21:33:00,49.0,40.0,-100.00,NE,53,0.0,5.0,72,0.00,,,0.00,0.000000,,2013-02-04 05:33:00,
2013-02-03 21:42:00,49.0,40.0,-100.00,NE,53,0.0,5.0,72,0.00,,,0.00,0.000000,,2013-02-04 05:42:00,
2013-02-03 21:52:00,49.0,40.0,-100.00,NE,53,0.0,5.0,72,0.00,,,0.00,0.000000,,2013-02-04 05:52:00,
2013-02-03 22:01:00,49.0,40.0,-100.00,NE,53,0.0,5.0,72,0.00,,,0.00,0.000000,,2013-02-04 06:01:00,
2013-02-03 22:11:00,49.0,40.0,-100.00,NE,53,0.0,5.0,72,0.00,,,0.00,0.000000,,2013-02-04 06:11:00,
2013-02-03 22:32:00,49.0,40.0,-100.00,NE,51,0.0,5.0,72,0.00,,,-99.99,0.000000,,2013-02-04 06:32:00,
2013-02-03 22:42:00,49.0,40.0,-100.00,NE,51,0.0,5.0,72,0.00,,,-99.99,0.000000,,2013-02-04 06:42:00,
2013-02-03 22:52:00,49.0,40.0,-100.00,NE,51,0.0,5.0,72,0.00,,,-99.99,0.000000,,2013-02-04 06:52:00,
2013-02-03 23:01:00,49.0,40.0,-100.00,NE,51,0.0,5.0,72,0.00,,,-99.99,0.000000,,2013-02-04 07:01:00,
2013-02-03 23:11:00,49.0,40.0,-100.00,NE,51,0.0,5.0,72,0.00,,,-99.99,0.000000,,2013-02-04 07:11:00,
2013-02-03 23:32:00,49.0,40.0,-100.00,ENE,69,0.0,3.0,72,0.00,,,0.00,0.000000,,2013-02-04 07:32:00,
2013-02-03 23:42:00,49.0,40.0,-100.00,ENE,69,0.0,3.0,72,0.00,,,0.00,0.000000,,2013-02-04 07:42:00,
2013-02-03 23:52:00,49.0,40.0,-100.00,ENE,69,0.0,3.0,72,0.00,,,0.00,0.000000,,2013-02-04 07:52:00,